sat.trackr.live / text

‹ back to catalog

KUIPER-00416

NORAD 68931 · 2026-098N

PAYLOAD ACTIVE UNKNOWN

§ Identity

Operator
Country
US
Launch date
2026-04-30
Launch site
FRGUI
Launch vehicle
Mass (kg)
RCS (m²)

External: N2YO · Heavens-Above · Gunter

§ Orbital elements

Epoch: 2026-05-25T02:16:34.081824Z

Period
93.72 min
Inclination
51.8737°
Eccentricity
0.0001404
Mean motion
15.36486085 rev/d
Perigee alt
455.6 km
Apogee alt
457.5 km
Semi-major
6,834.6 km
B*
6.3440e-4
RAAN
178.7437°
Arg perigee
97.4479°
Mean anomaly
262.6667°
Rev number
380

§ Raw data

KUIPER-004161 68931U 26098N   26145.09483891  .00022618  00000+0  63440-3 0  99902 68931  51.8737 178.7437 0001404  97.4479 262.6667 15.36486085  3808

JSON: /api/v1/satellites/68931 · /tle

For live sub-satellite position, see the globe view (requires WebGL).

§ Visibility from observer

Set your observer location to see the next 7 days of passes ≥ 10°. The values pass through the URL so the page stays shareable.

No JS? Fill the form by hand. The geolocation button needs JavaScript.